Home   Weather   Cookeville   Past weeks
Flag for USA

Past Weather in Cookeville, Tennessee, USA — Yesterday and Last 2 Weeks

Now
49 °F

Clear.


Feels Like: 45 °F
Forecast: 64 / 37 °F
Wind: 8 mph from West

Location: Crossville Memorial Airport

Current Time: Oct 22, 2019 at 9:54:49 pm

Latest Report: Oct 22, 2019 at 8:53 pm


Visibility: 10 mi

Pressure: 30.03 "Hg

Humidity: 64%

Dew Point: 37 °F

Location of CookevilleLocation

Past Weather in Cookeville — Graph

°F

Cookeville Temperature Yesterday

Maximum temperature yesterday: 67 °F (at 1:53 pm)
Minimum temperature yesterday: 52 °F (at 12:53 am)
Average temperature yesterday: 60 °F

High & Low Weather Summary for the Past Weeks

 TemperatureHumidityPressure
High76 °F (Oct 10, 2:53 pm)97% (Oct 7, 8:53 pm)30.19 "Hg (Oct 7, 8:53 pm)
Low33 °F (Oct 13, 4:53 am)17% (Oct 14, 3:53 pm)29.77 "Hg (Oct 16, 6:53 am)
Average56 °F77%30.02 "Hg
* Reported Oct 7 7:53 pm — Oct 22 7:53 pm, Cookeville. Weather by CustomWeather, © 2019

Note: Actual official high and low records may vary slightly from our data, if they occured in-between our weather recording intervals... More about our weather records

Advertising

Cookeville Weather History for the Previous 24 Hours

Scroll right to see more
 ConditionsComfort  
Time TempWeatherWind HumidityBarometerVisibility
7:53 pm
Tue, Oct 22
47 °FClear.5 mph77%30.01 "Hg10 mi
6:53 pm50 °FClear.5 mph63%29.99 "Hg10 mi
5:53 pm54 °FClear.5 mph55%29.96 "Hg10 mi
4:53 pm58 °FSunny.13 mph46%29.95 "Hg10 mi
3:53 pm60 °FPassing clouds.15 mph44%29.95 "Hg10 mi
2:53 pm61 °FSunny.12 mph44%29.93 "Hg10 mi
1:53 pm61 °FSunny.18 mph44%29.92 "Hg10 mi
12:53 pm60 °FSunny.18 mph46%29.92 "Hg10 mi
11:53 am60 °FSunny.16 mph47%29.94 "Hg10 mi
10:53 am57 °FSunny.9 mph58%29.94 "Hg10 mi
9:53 am57 °FSunny.8 mph67%29.93 "Hg10 mi
8:53 am54 °FPassing clouds.7 mph80%29.94 "Hg10 mi
7:53 am52 °FPassing clouds.6 mph93%29.93 "Hg10 mi
7:22 am52 °FFog.No wind93%29.95 "Hg6 mi
6:53 am52 °FPassing clouds.No wind93%29.92 "Hg10 mi
5:53 am53 °FOvercast.6 mph89%29.90 "Hg10 mi
4:53 am52 °FMostly cloudy.3 mph89%29.88 "Hg10 mi
3:53 am52 °FMostly cloudy.5 mph89%29.88 "Hg10 mi
2:53 am55 °FLight rain. Fog.10 mph96%29.86 "Hg4 mi
1:53 am56 °FRain. Fog.15 mph90%29.86 "Hg4 mi
1:09 am58 °FRain. Fog.17 mph87%29.89 "Hg3 mi
1:00 am60 °FLight rain. Fog.18 mph90%29.89 "Hg4 mi
12:33 am61 °FRain. Fog.6 mph97%29.88 "Hg2 mi
12:15 am62 °FHeavy rain. Fog.8 mph93%29.88 "Hg1 mi
12:00 am62 °FRain. Fog.6 mph93%29.88 "Hg2 mi
11:29 pm
Mon, Oct 21
62 °FLight rain. Fog.5 mph93%29.89 "Hg3 mi
11:21 pm62 °FRain. Fog.7 mph93%29.89 "Hg4 mi
11:09 pm62 °FRain. Fog.6 mph93%29.90 "Hg2 mi
10:53 pm63 °FOvercast.3 mph90%29.85 "Hg10 mi
10:35 pm62 °FLight rain. Fog.5 mph93%29.91 "Hg5 mi
10:00 pm63 °FLight rain. Fog.10 mph90%29.91 "Hg6 mi
Weather by CustomWeather, © 2019

See weather overview